[[{"header":{"parameterUnit":"m.s-1","parameterCategory":2,"la1":30.2991,"la2":30.254,"lo1":-89.0895,"lo2":-89.0444,"dy":0.0017,"dx":0.0017,"nx":28,"ny":28,"refTime":"2023-10-17T21:00:00:Z","depth":"0","parameterNumber":2,"parameterNumberName":"U-component_of_CURRENTS"},"data":[0,0,0,0,0,0,0,0,0,0,0,0,0,0,0,0,0,0,0,0,0,0,0,0,0,0,0,0,0,0,0,0,0,0,0,0,0,0,0,0,0,0,0,0,0,0,0,0,0,0,0,0,0,0,0,0,0,0,-0.3794,-0.3794,0,-0.3756,-0.3756,-0.3755,-0.3629,-0.3627,-0.3624,-0.3621,-0.3428,-0.3426,-0.3423,0,0,0,0,0,0,0,0,0,0,0,0,0,-0.3623,-0.3627,-0.3794,-0.3794,-0.3794,-0.3756,-0.3756,-0.3755,-0.363,-0.3627,-0.3623,-0.362,-0.3429,-0.3426,-0.3423,0,0,0,0,0,0,0,0,0,0,0,0,0,-0.3652,-0.3629,-0.3794,-0.3728,-0.3721,-0.3757,-0.3756,-0.3755,-0.3631,-0.3627,-0.3622,-0.3619,-0.343,-0.3426,-0.3423,-0.348,0,0,-0.3411,-0.3409,0,0,0,0,0,0,0,0,-0.365,-0.3658,-0.3738,-0.3732,-0.3725,-0.3694,-0.3624,-0.3656,-0.3632,-0.3664,-0.3621,-0.3617,-0.3507,-0.3496,-0.3499,-0.3471,-0.3462,-0.341,-0.3408,-0.3406,-0.3405,0,0,0,0,0,0,0,-0.3649,-0.3658,-0.3778,-0.3738,-0.373,-0.3653,-0.3654,-0.363,-0.3605,-0.3661,-0.3652,-0.3651,-0.3501,-0.3503,-0.3493,-0.3459,-0.341,-0.3407,-0.3404,-0.3403,-0.345,-0.3454,0,0,0,0,0,0,-0.3669,-0.3658,-0.3779,-0.3777,-0.3678,-0.366,-0.366,-0.3708,-0.3608,-0.3591,-0.3654,-0.3645,-0.3512,-0.3498,-0.3485,-0.3469,-0.3406,-0.3402,-0.34,-0.3447,-0.3451,-0.3455,0,0,0,0,0,0,-0.3666,-0.3682,-0.3781,-0.3713,-0.372,-0.3668,-0.3721,-0.3709,-0.3686,-0.3605,-0.3583,-0.3641,-0.3508,-0.3491,-0.3482,-0.3463,-0.3401,-0.3397,-0.3443,-0.3448,-0.3453,-0.3486,0,0,0,0,0,0,-0.3662,-0.3683,-0.3709,-0.3717,-0.3725,-0.3809,-0.3725,-0.3711,-0.3694,-0.3681,-0.3588,-0.3567,-0.3503,-0.3489,-0.3478,-0.3456,-0.3394,-0.3438,-0.3445,-0.3452,-0.3481,-0.3492,-0.3502,0,0,0,0,0,-0.3657,-0.3702,-0.3712,-0.3724,-0.3771,-0.3811,-0.3809,-0.3753,-0.3698,-0.3713,-0.3659,-0.3568,-0.3523,-0.349,-0.3476,-0.3452,-0.3435,-0.3443,-0.3451,-0.3476,-0.349,-0.3502,0,0,0,0,0,0,-0.3648,-0.3695,-0.3704,-0.3766,-0.3795,-0.379,-0.3785,-0.3763,-0.3736,-0.3702,-0.3619,-0.3598,-0.3592,-0.3549,-0.3514,-0.35,-0.3463,-0.3469,-0.3487,-0.3499,-0.351,-0.3465,-0.3391,0,0,0,0,0,-0.3668,-0.3699,-0.3753,-0.3796,-0.3818,-0.3808,-0.3808,-0.3786,-0.3769,-0.375,-0.3698,-0.3649,-0.3627,-0.3581,-0.3575,-0.3557,-0.3477,-0.3542,-0.3552,-0.3561,-0.3525,-0.3427,-0.3422,-0.3482,-0.3482,-0.3482,0,0,-0.3662,-0.37,-0.371,-0.3792,-0.38,-0.3822,-0.3796,-0.3809,-0.3799,-0.3736,-0.3705,-0.3699,-0.3647,-0.3637,-0.3625,-0.3578,-0.3513,-0.3571,-0.3577,-0.3536,-0.3434,-0.3427,-0.342,-0.3487,-0.3486,-0.3486,0,0,-0.3661,-0.3726,-0.3743,-0.3782,-0.3818,-0.3823,-0.3833,-0.3852,-0.3834,-0.3851,-0.3796,-0.378,-0.3755,-0.3695,-0.3662,-0.3735,-0.3602,-0.3744,-0.3707,-0.3614,-0.3605,-0.3596,-0.3507,-0.349,-0.3711,-0.3711,-0.3711,0,-0.3655,-0.3696,-0.3753,-0.379,-0.3794,-0.3825,-0.3834,-0.3848,-0.3854,-0.3834,-0.3846,-0.38,-0.377,-0.3694,-0.3728,-0.3742,-0.3674,-0.3646,-0.3616,-0.3606,-0.3596,-0.3507,-0.3487,-0.3714,-0.3713,-0.3713,-0.3713,0,-0.3658,-0.3695,-0.3713,-0.376,-0.379,-0.3808,-0.3848,-0.3867,-0.3863,-0.3854,-0.3837,-0.3828,-0.3776,-0.3786,-0.3771,-0.3691,-0.3664,-0.3662,-0.3557,-0.359,-0.3497,-0.3476,-0.3717,-0.3716,-0.3716,-0.3715,0,0,-0.3609,-0.3695,-0.369,-0.3702,-0.3768,-0.3787,-0.3807,-0.3815,-0.3781,-0.382,-0.3758,-0.3772,-0.3761,-0.3729,-0.3708,-0.3626,-0.3532,-0.361,-0.3604,-0.3474,-0.3313,-0.3248,-0.3217,-0.3509,-0.3506,-0.3503,-0.328,0,-0.3576,-0.361,-0.3663,-0.3666,-0.3682,-0.3737,-0.3749,-0.3763,-0.3769,-0.3738,-0.3721,-0.3683,-0.3737,-0.3704,-0.3644,-0.3567,-0.3475,-0.3591,-0.334,-0.3332,-0.323,-0.319,-0.3085,-0.2872,-0.3258,-0.3254,-0.3252,0,-0.3522,-0.3557,-0.3558,-0.3608,-0.3621,-0.3631,-0.3624,-0.3646,-0.3634,-0.3639,-0.3605,-0.36,-0.3519,-0.3564,-0.3402,-0.3471,-0.3394,-0.333,-0.3319,-0.3216,-0.3225,-0.2905,-0.2818,-0.2803,-0.3218,-0.322,-0.3223,0,-0.3397,-0.3462,-0.3445,-0.3467,-0.3545,-0.3545,-0.3576,-0.359,-0.3574,-0.3549,-0.3505,-0.3458,-0.3393,-0.3314,-0.3254,-0.3303,-0.3052,-0.3096,-0.2952,-0.2947,-0.2783,-0.2769,-0.2599,-0.2941,-0.2941,-0.2942,-0.2942,0,-0.3313,-0.33,-0.3386,-0.3384,-0.3361,-0.3455,-0.341,-0.3452,-0.3444,-0.3378,-0.3429,-0.3343,-0.3323,-0.3212,-0.3176,-0.2991,-0.2986,-0.2906,-0.2866,-0.2802,-0.2793,-0.2715,-0.2776,-0.2933,-0.2935,-0.2937,-0.2938,0,-0.3157,-0.3223,-0.3215,-0.3287,-0.33,-0.3281,-0.3319,-0.3282,-0.3313,-0.3217,-0.3199,-0.3195,-0.3073,-0.3035,-0.2878,-0.2846,-0.2651,-0.2641,-0.2579,-0.2535,-0.2409,-0.2479,-0.2251,-0.2187,-0.2423,-0.242,-0.2417,0,-0.3086,-0.3055,-0.3103,-0.3088,-0.3114,-0.3111,-0.3099,-0.3185,-0.3139,-0.311,-0.303,-0.2939,-0.2844,-0.2631,-0.2563,-0.243,-0.2472,-0.2247,-0.2326,-0.2339,-0.2387,-0.2452,-0.2421,-0.2129,-0.2125,-0.2121,-0.2117,0,-0.2928,-0.293,-0.2926,-0.2901,-0.2891,-0.2863,-0.286,-0.2824,-0.2885,-0.2828,-0.274,-0.2677,-0.2524,-0.2369,-0.2238,-0.216,-0.2212,-0.2159,-0.2161,-0.2115,-0.2178,-0.2119,-0.2367,-0.2082,-0.2085,-0.2088,-0.209,-0.2091,-0.2784,-0.2743,-0.2734,-0.2675,-0.2676,-0.2614,-0.2519,-0.2545,-0.2487,-0.2382,-0.2448,-0.2319,-0.2232,-0.2052,-0.1969,-0.1824,-0.1931,-0.1774,-0.1845,-0.19,-0.1868,-0.2048,-0.1744,-0.1745,-0.1747,-0.1748,-0.1749,0,-0.2557,-0.2545,-0.2509,-0.2463,-0.2361,-0.2422,-0.2336,-0.2193,-0.2088,-0.2082,-0.2008,-0.1955,-0.1816,-0.1765,-0.1655,-0.1555,-0.1538,-0.1513,-0.1579,-0.1552,-0.1658,-0.1678,-0.136,-0.136,-0.136,-0.136,-0.136,-0.136,-0.2432,-0.2321,-0.2304,-0.2131,-0.2096,-0.1885,-0.1783,-0.1653,-0.157,-0.1434,-0.1441,-0.1435,-0.1532,-0.1686,-0.1561,-0.1465,-0.1452,-0.1388,-0.1435,-0.1548,-0.1579,-0.1609,-0.1638,-0.1317,-0.1317,-0.1251,-0.1251,-0.1251]},{"header":{"parameterUnit":"m.s-1","parameterCategory":2,"la1":30.2991,"la2":30.254,"lo1":-89.0895,"lo2":-89.0444,"dy":0.0017,"dx":0.0017,"nx":28,"ny":28,"refTime":"2023-10-17T21:00:00:Z","depth":"0","parameterNumber":3,"parameterNumberName":"V-component_of_CURRENTS"},"data":[0,0,0,0,0,0,0,0,0,0,0,0,0,0,0,0,0,0,0,0,0,0,0,0,0,0,0,0,0,0,0,0,0,0,0,0,0,0,0,0,0,0,0,0,0,0,0,0,0,0,0,0,0,0,0,0,0,0,0.0982,0.0983,0,0.1147,0.1149,0.1151,0.1279,0.128,0.1281,0.1282,0.146,0.1464,0.1468,0,0,0,0,0,0,0,0,0,0,0,0,0,0.0886,0.0886,0.0981,0.0983,0.0985,0.1147,0.1149,0.1152,0.1279,0.128,0.1281,0.1282,0.1459,0.1464,0.1468,0,0,0,0,0,0,0,0,0,0,0,0,0,0.0978,0.0886,0.0981,0.1066,0.1076,0.1146,0.1149,0.1152,0.1278,0.128,0.1281,0.1283,0.1458,0.1463,0.1469,0.1474,0,0,0.1487,0.1489,0,0,0,0,0,0,0,0,0.0973,0.0982,0.1052,0.1061,0.1071,0.1192,0.1181,0.126,0.1278,0.1204,0.1282,0.1283,0.1369,0.1382,0.1413,0.1483,0.149,0.1487,0.149,0.1493,0.1495,0,0,0,0,0,0,0,0.0966,0.0976,0.1049,0.1054,0.1065,0.1134,0.1148,0.1197,0.1278,0.121,0.1219,0.1234,0.1375,0.1407,0.1418,0.1493,0.1487,0.1492,0.1495,0.1498,0.1585,0.1584,0,0,0,0,0,0,0.0934,0.0969,0.1044,0.1054,0.1022,0.1134,0.115,0.1153,0.1277,0.1297,0.1232,0.1239,0.1397,0.1411,0.1425,0.1414,0.1493,0.1498,0.1502,0.1586,0.1585,0.1584,0,0,0,0,0,0,0.0931,0.0938,0.1037,0.1015,0.1032,0.1133,0.1137,0.1156,0.1173,0.1294,0.1314,0.1228,0.1399,0.1417,0.1458,0.1422,0.1501,0.1506,0.1588,0.1586,0.1584,0.1407,0,0,0,0,0,0,0.0927,0.0936,0.0904,0.1012,0.1032,0.1031,0.1135,0.1158,0.118,0.119,0.1296,0.1316,0.1401,0.1448,0.1463,0.1432,0.1511,0.1589,0.1587,0.1585,0.1414,0.1399,0.1386,0,0,0,0,0,0.0923,0.0853,0.0901,0.0909,0.0992,0.1028,0.1043,0.1124,0.1177,0.1152,0.125,0.1312,0.1446,0.1452,0.147,0.1439,0.159,0.1588,0.1585,0.142,0.1402,0.1387,0,0,0,0,0,0,0.0786,0.0863,0.0917,0.0874,0.0933,0.1048,0.1023,0.1097,0.1156,0.1162,0.1296,0.132,0.1353,0.1413,0.1416,0.146,0.1528,0.1529,0.1397,0.1381,0.1367,0.1329,0.1515,0,0,0,0,0,0.0743,0.0707,0.0816,0.0771,0.0797,0.0911,0.0931,0.099,0.1068,0.1096,0.1188,0.1279,0.1357,0.138,0.1456,0.146,0.1494,0.1455,0.1441,0.1429,0.1411,0.1461,0.145,0.1576,0.1576,0.1576,0,0,0.0669,0.071,0.0685,0.0738,0.0794,0.0804,0.0924,0.0927,0.0948,0.1102,0.1137,0.1235,0.1353,0.1381,0.1398,0.1421,0.1396,0.1426,0.1414,0.1403,0.1457,0.1445,0.1434,0.1574,0.1574,0.1574,0,0,0.0518,0.0552,0.049,0.053,0.0594,0.0676,0.0668,0.0779,0.0835,0.0883,0.1015,0.108,0.1188,0.1267,0.1324,0.127,0.1335,0.1295,0.1177,0.1225,0.1215,0.1207,0.1161,0.115,0.1272,0.1272,0.1272,0,0.0438,0.0396,0.0472,0.0446,0.0473,0.0611,0.0587,0.0652,0.0763,0.0813,0.086,0.1052,0.1135,0.1201,0.1186,0.1236,0.1249,0.1227,0.1204,0.1197,0.1192,0.1149,0.1139,0.1263,0.1264,0.1265,0.1266,0,0.027,0.0248,0.021,0.0242,0.0271,0.0256,0.0385,0.0427,0.0528,0.0622,0.0714,0.0846,0.0961,0.0993,0.1072,0.1081,0.1093,0.1191,0.1237,0.1168,0.1127,0.1119,0.125,0.1254,0.1256,0.1258,0,0,0.0085,0.0097,0.0084,0.0103,0.0173,0.0196,0.0222,0.0317,0.0366,0.0464,0.0528,0.065,0.0741,0.081,0.0922,0.0948,0.0893,0.1026,0.1033,0.0961,0.0924,0.1,0.1,0.0994,0.0994,0.0993,0.0884,0,-0.0045,-0.0127,-0.0081,-0.0122,-0.0122,0.0013,0.0045,0.014,0.0257,0.0344,0.0481,0.0577,0.0668,0.0727,0.0763,0.0898,0.0878,0.0908,0.1021,0.1021,0.1084,0.0998,0.1046,0.0962,0.0878,0.0877,0.0876,0,-0.0206,-0.0218,-0.0293,-0.0224,-0.0211,-0.0214,-0.0091,-0.0044,0.0103,0.0193,0.0293,0.0426,0.049,0.0591,0.0694,0.0711,0.0776,0.0854,0.0855,0.099,0.1088,0.1037,0.0954,0.1135,0.0866,0.0867,0.0868,0,-0.0332,-0.0353,-0.0403,-0.0395,-0.0315,-0.03,-0.0239,-0.0103,-0.0036,0.0093,0.0138,0.027,0.0332,0.0447,0.0611,0.0645,0.0719,0.08,0.0901,0.0903,0.1,0.1014,0.1099,0.0833,0.0834,0.0834,0.0834,0,-0.0467,-0.0497,-0.0466,-0.0489,-0.0496,-0.0405,-0.0374,-0.0282,-0.0167,-0.0122,0.0041,0.0094,0.0306,0.0405,0.0541,0.0688,0.0658,0.0844,0.0893,0.0933,0.0942,0.1156,0.1246,0.083,0.0831,0.0831,0.0832,0,-0.0585,-0.0587,-0.0617,-0.0573,-0.056,-0.0559,-0.0465,-0.043,-0.0323,-0.0267,-0.0242,-0.0067,0.0068,0.0268,0.0452,0.0591,0.0852,0.0798,0.0787,0.0839,0.1126,0.1203,0.1302,0.1415,0.0859,0.086,0.0861,0,-0.0634,-0.0681,-0.0689,-0.0703,-0.0689,-0.0665,-0.0642,-0.0523,-0.0485,-0.0362,-0.0359,-0.0213,-0.0072,0.021,0.0494,0.0717,0.088,0.0874,0.0977,0.1118,0.124,0.1282,0.1374,0.0979,0.0981,0.0983,0.0984,0,-0.0679,-0.0711,-0.0733,-0.0783,-0.0792,-0.0793,-0.0761,-0.0754,-0.0629,-0.057,-0.0471,-0.0349,-0.0051,0.0287,0.0607,0.0749,0.1034,0.0917,0.1094,0.1354,0.1376,0.1517,0.1006,0.0999,0.0998,0.0997,0.0996,0.0995,-0.0664,-0.0705,-0.0746,-0.078,-0.0843,-0.0884,-0.084,-0.0796,-0.0731,-0.0536,-0.0525,-0.021,0.0164,0.066,0.0832,0.1221,0.1173,0.1338,0.1404,0.1421,0.1599,0.1082,0.1149,0.1148,0.1148,0.1147,0.1147,0,-0.0516,-0.0603,-0.07,-0.074,-0.0815,-0.0847,-0.0863,-0.0761,-0.0639,-0.0447,-0.0264,0.0229,0.064,0.1037,0.1498,0.1706,0.1765,0.1791,0.1867,0.1932,0.1494,0.1578,0.1709,0.1709,0.1709,0.1708,0.1708,0.1708,-0.0425,-0.0465,-0.0544,-0.0632,-0.0704,-0.0702,-0.0687,-0.0558,-0.0379,0.0018,0.0407,0.0635,0.1059,0.1689,0.2123,0.2157,0.2367,0.2314,0.2433,0.215,0.2113,0.2078,0.218,0.2436,0.2437,0.2861,0.2865,0.2869]}],[{"header":{"parameterUnit":"m.s-1","parameterCategory":2,"la1":30.2991,"la2":30.254,"lo1":-89.0895,"lo2":-89.0444,"dy":0.0017,"dx":0.0017,"nx":28,"ny":28,"refTime":"2023-10-17T21:00:00:Z","depth":"2","parameterNumber":2,"parameterNumberName":"U-component_of_CURRENTS"},"data":[0,0,0,0,0,0,0,0,0,0,0,0,0,0,0,0,0,0,0,0,0,0,0,0,0,0,0,0,0,0,0,0,0,0,0,0,0,0,0,0,0,0,0,0,0,0,0,0,0,0,0,0,0,0,0,0,0,0,-0.2353,-0.2353,0,-0.2443,-0.2445,-0.2447,-0.2462,-0.246,-0.2458,-0.2457,-0.26,-0.2605,-0.2611,0,0,0,0,0,0,0,0,0,0,0,0,0,-0.2293,-0.2294,-0.2353,-0.2353,-0.2353,-0.2443,-0.2445,-0.2448,-0.2462,-0.246,-0.2458,-0.2456,-0.2598,-0.2605,-0.2611,0,0,0,0,0,0,0,0,0,0,0,0,0,-0.2354,-0.2294,-0.2353,-0.2363,-0.2364,-0.2443,-0.2445,-0.2448,-0.2462,-0.246,-0.2457,-0.2455,-0.2596,-0.2604,-0.2612,-0.2715,0,0,-0.2637,-0.2641,0,0,0,0,0,0,0,0,-0.2351,-0.2358,-0.2362,-0.2363,-0.2364,-0.2429,-0.2476,-0.2537,-0.2463,-0.2436,-0.2457,-0.2453,-0.2543,-0.2556,-0.2593,-0.2722,-0.2728,-0.2638,-0.2643,-0.2646,-0.2649,0,0,0,0,0,0,0,-0.2346,-0.2354,-0.2399,-0.2362,-0.2363,-0.2397,-0.2404,-0.2489,-0.2512,-0.2438,-0.2437,-0.2431,-0.2545,-0.2585,-0.2596,-0.273,-0.2638,-0.2645,-0.265,-0.2653,-0.3028,-0.3033,0,0,0,0,0,0,-0.2312,-0.235,-0.2396,-0.2401,-0.2339,-0.2399,-0.2407,-0.242,-0.251,-0.2518,-0.2434,-0.2432,-0.2572,-0.2586,-0.2601,-0.2744,-0.2646,-0.2654,-0.2659,-0.3023,-0.3029,-0.3034,0,0,0,0,0,0,-0.2311,-0.2316,-0.2392,-0.2368,-0.2378,-0.2401,-0.2417,-0.2422,-0.2482,-0.2504,-0.2514,-0.2486,-0.257,-0.2589,-0.2749,-0.2748,-0.2658,-0.2665,-0.3017,-0.3025,-0.3032,-0.302,0,0,0,0,0,0,-0.2309,-0.2316,-0.2341,-0.2366,-0.2378,-0.2481,-0.2418,-0.2426,-0.2475,-0.2475,-0.2554,-0.2562,-0.257,-0.2737,-0.2757,-0.2758,-0.2672,-0.301,-0.302,-0.3029,-0.3014,-0.3026,-0.3036,0,0,0,0,0,-0.2307,-0.2343,-0.2342,-0.2348,-0.2403,-0.2484,-0.2498,-0.251,-0.2481,-0.2547,-0.2614,-0.2561,-0.2808,-0.2751,-0.2772,-0.2774,-0.3006,-0.3018,-0.3029,-0.3009,-0.3023,-0.3036,0,0,0,0,0,0,-0.2328,-0.2348,-0.2347,-0.2386,-0.2448,-0.2483,-0.2528,-0.2538,-0.2642,-0.2647,-0.2659,-0.2679,-0.2801,-0.2836,-0.2771,-0.2921,-0.2886,-0.2902,-0.2863,-0.2878,-0.2889,-0.2823,-0.2678,0,0,0,0,0,-0.2343,-0.2382,-0.2412,-0.2456,-0.2479,-0.2515,-0.2551,-0.2574,-0.2644,-0.2685,-0.2725,-0.2792,-0.2867,-0.2912,-0.2992,-0.3105,-0.3045,-0.3119,-0.313,-0.3139,-0.311,-0.3043,-0.3041,-0.3072,-0.3071,-0.3071,0,0,-0.236,-0.2377,-0.2399,-0.2465,-0.2502,-0.2559,-0.2535,-0.2614,-0.2663,-0.269,-0.2789,-0.2847,-0.2917,-0.3023,-0.3077,-0.3048,-0.3111,-0.3153,-0.3159,-0.3124,-0.3054,-0.3049,-0.3045,-0.3079,-0.3078,-0.3077,0,0,-0.2405,-0.2436,-0.2476,-0.2536,-0.2602,-0.2629,-0.2657,-0.2722,-0.2756,-0.2882,-0.2889,-0.2962,-0.3095,-0.3115,-0.3146,-0.3287,-0.3179,-0.3316,-0.3302,-0.3239,-0.3232,-0.3225,-0.3156,-0.3143,-0.331,-0.331,-0.331,0,-0.2413,-0.2469,-0.2511,-0.257,-0.2602,-0.2656,-0.271,-0.2776,-0.2888,-0.2913,-0.2921,-0.3055,-0.3117,-0.3183,-0.3229,-0.3294,-0.3241,-0.3225,-0.3239,-0.3231,-0.3224,-0.3155,-0.314,-0.3311,-0.3311,-0.3311,-0.3311,0,-0.2495,-0.254,-0.2577,-0.2649,-0.2709,-0.2783,-0.2843,-0.2919,-0.2947,-0.2981,-0.3066,-0.3144,-0.3202,-0.3234,-0.3277,-0.3273,-0.3247,-0.3252,-0.3166,-0.3217,-0.3146,-0.313,-0.3312,-0.3312,-0.3311,-0.3311,0,0,-0.247,-0.2599,-0.2607,-0.2637,-0.2754,-0.2797,-0.2893,-0.2967,-0.2979,-0.3082,-0.3076,-0.3211,-0.3212,-0.3251,-0.3286,-0.3234,-0.316,-0.3222,-0.3218,-0.3086,-0.2998,-0.2925,-0.29,-0.3144,-0.3141,-0.3139,-0.2968,0,-0.2503,-0.2594,-0.2661,-0.2743,-0.278,-0.2862,-0.2928,-0.3011,-0.3051,-0.3077,-0.3127,-0.316,-0.3232,-0.323,-0.321,-0.3179,-0.3118,-0.3204,-0.3028,-0.3022,-0.2893,-0.288,-0.2716,-0.2544,-0.2952,-0.295,-0.2948,0,-0.2532,-0.2584,-0.266,-0.2741,-0.2764,-0.2829,-0.2885,-0.296,-0.3028,-0.3053,-0.3089,-0.3112,-0.3125,-0.3135,-0.3071,-0.3119,-0.3063,-0.3009,-0.3002,-0.2912,-0.2919,-0.2568,-0.25,-0.2921,-0.2923,-0.2925,-0.2927,0,-0.2445,-0.2564,-0.2609,-0.2653,-0.277,-0.2808,-0.287,-0.2945,-0.2969,-0.3009,-0.2994,-0.3032,-0.3018,-0.2967,-0.2949,-0.2984,-0.2807,-0.2844,-0.2713,-0.2708,-0.2522,-0.2504,-0.2732,-0.2732,-0.2732,-0.2733,-0.2733,0,-0.2423,-0.2454,-0.2574,-0.2601,-0.2632,-0.2746,-0.2762,-0.283,-0.2881,-0.2883,-0.2967,-0.2933,-0.2962,-0.2903,-0.2881,-0.2753,-0.2766,-0.2675,-0.2644,-0.2524,-0.2509,-0.281,-0.2822,-0.2726,-0.2728,-0.2729,-0.273,0,-0.2317,-0.2405,-0.2444,-0.2561,-0.2589,-0.2607,-0.2691,-0.2705,-0.2775,-0.276,-0.2765,-0.2826,-0.2764,-0.2761,-0.2653,-0.2641,-0.253,-0.2473,-0.2336,-0.2292,-0.2486,-0.2501,-0.229,-0.2285,-0.2282,-0.2279,-0.2276,0,-0.2268,-0.2288,-0.2377,-0.2383,-0.2436,-0.2482,-0.2516,-0.2626,-0.2637,-0.2683,-0.2663,-0.2626,-0.2591,-0.2442,-0.2381,-0.2273,-0.2382,-0.2053,-0.21,-0.2442,-0.2434,-0.2455,-0.2473,-0.1855,-0.1849,-0.1845,-0.1841,0,-0.2157,-0.2197,-0.2225,-0.2242,-0.2272,-0.2299,-0.2361,-0.2359,-0.2479,-0.2474,-0.246,-0.2425,-0.2328,-0.216,-0.2048,-0.1977,-0.2071,-0.1952,-0.2285,-0.2017,-0.2024,-0.2021,-0.2054,-0.1798,-0.1803,-0.1806,-0.1808,-0.181,-0.2039,-0.2026,-0.2061,-0.2059,-0.2103,-0.2119,-0.2077,-0.2158,-0.2155,-0.2135,-0.2219,-0.2108,-0.2075,-0.1819,-0.1709,-0.1626,-0.1779,-0.1705,-0.1722,-0.1744,-0.1748,-0.1751,-0.1473,-0.1475,-0.1477,-0.1479,-0.1481,0,-0.185,-0.1864,-0.1877,-0.1862,-0.185,-0.193,-0.1958,-0.1896,-0.1847,-0.1884,-0.1848,-0.1648,-0.1523,-0.1488,-0.1303,-0.1265,-0.1278,-0.1204,-0.1235,-0.1276,-0.1314,-0.1301,-0.0904,-0.0902,-0.0901,-0.0899,0,0,-0.1745,-0.1682,-0.1702,-0.16,-0.1608,-0.1522,-0.1502,-0.1466,-0.1452,-0.1387,-0.1336,-0.1427,-0.1441,-0.1178,-0.1115,-0.0978,-0.1116,-0.0921,-0.1384,-0.1461,-0.1496,-0.1599,-0.1624,0,0,0,0,0]},{"header":{"parameterUnit":"m.s-1","parameterCategory":2,"la1":30.2991,"la2":30.254,"lo1":-89.0895,"lo2":-89.0444,"dy":0.0017,"dx":0.0017,"nx":28,"ny":28,"refTime":"2023-10-17T21:00:00:Z","depth":"2","parameterNumber":3,"parameterNumberName":"V-component_of_CURRENTS"},"data":[0,0,0,0,0,0,0,0,0,0,0,0,0,0,0,0,0,0,0,0,0,0,0,0,0,0,0,0,0,0,0,0,0,0,0,0,0,0,0,0,0,0,0,0,0,0,0,0,0,0,0,0,0,0,0,0,0,0,-0.0631,-0.063,0,-0.0577,-0.0576,-0.0576,-0.0539,-0.0539,-0.0539,-0.0539,-0.0387,-0.0383,-0.0379,0,0,0,0,0,0,0,0,0,0,0,0,0,-0.063,-0.0631,-0.0631,-0.063,-0.063,-0.0577,-0.0576,-0.0575,-0.0539,-0.0539,-0.0539,-0.0539,-0.0388,-0.0384,-0.0379,0,0,0,0,0,0,0,0,0,0,0,0,0,-0.0608,-0.0631,-0.0631,-0.0606,-0.0603,-0.0577,-0.0576,-0.0575,-0.0539,-0.0539,-0.0539,-0.0539,-0.039,-0.0384,-0.0378,-0.0347,0,0,-0.0361,-0.0358,0,0,0,0,0,0,0,0,-0.061,-0.0608,-0.061,-0.0608,-0.0605,-0.0566,-0.0521,-0.0494,-0.0539,-0.0562,-0.0539,-0.0539,-0.0438,-0.0429,-0.0419,-0.034,-0.0333,-0.036,-0.0356,-0.0354,-0.0352,0,0,0,0,0,0,0,-0.0611,-0.061,-0.0608,-0.061,-0.0606,-0.0573,-0.057,-0.0515,-0.05,-0.056,-0.0558,-0.0554,-0.0436,-0.0425,-0.0415,-0.0331,-0.036,-0.0355,-0.0351,-0.0349,-0.0172,-0.0171,0,0,0,0,0,0,-0.0624,-0.0612,-0.061,-0.0607,-0.0608,-0.0574,-0.057,-0.0577,-0.0502,-0.0492,-0.0554,-0.0552,-0.0435,-0.0422,-0.0409,-0.0333,-0.0354,-0.0349,-0.0345,-0.0173,-0.0172,-0.017,0,0,0,0,0,0,-0.0625,-0.0625,-0.0612,-0.0608,-0.0604,-0.0575,-0.0582,-0.0577,-0.0561,-0.0499,-0.0486,-0.0544,-0.0434,-0.0417,-0.0351,-0.0328,-0.0346,-0.0341,-0.0174,-0.0173,-0.0171,-0.0203,0,0,0,0,0,0,-0.0625,-0.0626,-0.0619,-0.061,-0.0605,-0.058,-0.0582,-0.0576,-0.0559,-0.0557,-0.0486,-0.0472,-0.0433,-0.036,-0.0345,-0.0321,-0.0336,-0.0176,-0.0174,-0.0171,-0.0203,-0.0202,-0.0201,0,0,0,0,0,-0.0625,-0.0621,-0.0619,-0.0618,-0.0603,-0.0579,-0.0573,-0.055,-0.0559,-0.0539,-0.05,-0.0474,-0.0335,-0.0354,-0.0337,-0.031,-0.0177,-0.0174,-0.0172,-0.0204,-0.0202,-0.0201,0,0,0,0,0,0,-0.0627,-0.0617,-0.0614,-0.061,-0.0589,-0.0573,-0.0558,-0.0551,-0.0508,-0.0501,-0.0459,-0.0441,-0.0386,-0.0336,-0.0359,-0.0252,-0.0251,-0.0245,-0.0281,-0.028,-0.0279,-0.0289,-0.0331,0,0,0,0,0,-0.0624,-0.0608,-0.0601,-0.0592,-0.0592,-0.0578,-0.0564,-0.0545,-0.0515,-0.0498,-0.0452,-0.04,-0.0361,-0.0313,-0.0271,-0.0197,-0.016,-0.0168,-0.0167,-0.0167,-0.0162,-0.008,-0.0071,-0.0161,-0.0161,-0.0161,0,0,-0.0619,-0.0612,-0.0602,-0.0588,-0.0581,-0.0577,-0.0568,-0.0543,-0.0529,-0.0484,-0.0443,-0.0405,-0.0349,-0.0285,-0.0251,-0.0234,-0.0124,-0.0163,-0.0164,-0.0159,-0.0076,-0.0067,-0.006,-0.016,-0.016,-0.016,0,0,-0.0624,-0.0607,-0.0608,-0.0593,-0.0572,-0.0556,-0.0553,-0.0529,-0.0506,-0.0461,-0.0439,-0.0372,-0.0309,-0.0248,-0.0219,-0.0178,-0.0144,-0.0172,-0.0146,-0.0067,-0.0059,-0.0052,-0.0014,-0.0002,-0.0145,-0.0145,-0.0145,0,-0.0624,-0.063,-0.0601,-0.0607,-0.0599,-0.0558,-0.0566,-0.0533,-0.048,-0.0452,-0.0447,-0.0343,-0.0289,-0.0212,-0.0201,-0.0174,-0.0147,-0.0161,-0.0067,-0.0059,-0.005,-0.0013,-0.0,-0.0146,-0.0146,-0.0146,-0.0146,0,-0.064,-0.064,-0.0642,-0.0637,-0.0617,-0.0603,-0.0572,-0.053,-0.0503,-0.0465,-0.039,-0.0311,-0.0237,-0.0214,-0.0199,-0.011,-0.012,-0.0101,-0.0076,-0.0044,-0.0006,0.0008,-0.0148,-0.0147,-0.0147,-0.0147,0,0,-0.0669,-0.0657,-0.0661,-0.0667,-0.063,-0.0621,-0.0585,-0.0539,-0.0517,-0.043,-0.0389,-0.0296,-0.0237,-0.0199,-0.0147,-0.0069,0.0006,-0.0063,-0.0058,-0.0037,0.0145,0.0169,0.0187,0.0033,0.0035,0.0038,0.0139,0,-0.07,-0.0724,-0.0699,-0.0707,-0.0723,-0.0664,-0.0639,-0.0575,-0.052,-0.0456,-0.0341,-0.029,-0.0236,-0.0204,-0.0107,-0.0043,0.0044,-0.0025,0.0122,0.0126,0.0135,0.0205,0.0175,0.0267,0.0153,0.0155,0.0157,0,-0.074,-0.0747,-0.0774,-0.0755,-0.0757,-0.0744,-0.0692,-0.0657,-0.0545,-0.0497,-0.0386,-0.0319,-0.0185,-0.0156,0.0032,-0.0024,0.0066,0.0126,0.0132,0.018,0.0178,0.0224,0.0297,0.0181,0.0179,0.0177,0.0175,0,-0.0795,-0.0801,-0.0822,-0.0817,-0.0788,-0.0779,-0.0751,-0.0668,-0.0636,-0.0522,-0.048,-0.0318,-0.0236,-0.0097,0.005,0.0035,0.0235,0.0241,0.0356,0.0356,0.0376,0.0374,0.0393,0.0393,0.0392,0.0392,0.0392,0,-0.0841,-0.0859,-0.0851,-0.0864,-0.0876,-0.0834,-0.082,-0.0767,-0.0681,-0.0626,-0.0499,-0.042,-0.0219,-0.008,0.0048,0.0248,0.0255,0.0375,0.0403,0.0361,0.0358,0.0319,0.0309,0.0396,0.0395,0.0394,0.0394,0,-0.0898,-0.0894,-0.092,-0.0908,-0.0908,-0.0915,-0.088,-0.0857,-0.0775,-0.0701,-0.0669,-0.0484,-0.0299,-0.011,0.0115,0.0249,0.0418,0.0488,0.0405,0.0424,0.0478,0.0465,0.0628,0.063,0.0632,0.0633,0.0635,0,-0.0931,-0.0952,-0.0965,-0.0984,-0.0983,-0.0985,-0.0979,-0.091,-0.0875,-0.0734,-0.069,-0.0508,-0.0339,-0.0006,0.0235,0.0479,0.0475,0.0589,0.0586,0.0501,0.0512,0.0496,0.0481,0.0585,0.0585,0.0586,0.0587,0,-0.0988,-0.0988,-0.1005,-0.1049,-0.1064,-0.1068,-0.1048,-0.1034,-0.0931,-0.0852,-0.0699,-0.0568,-0.023,0.0058,0.0366,0.0496,0.0544,0.0611,0.058,0.0527,0.0469,0.0476,0.0462,0.0592,0.0592,0.0591,0.0591,0.0591,-0.1033,-0.1056,-0.1081,-0.1118,-0.1132,-0.1137,-0.1141,-0.1085,-0.1022,-0.0877,-0.0716,-0.0483,-0.0204,0.0247,0.0467,0.0651,0.0643,0.0689,0.0684,0.0679,0.0653,0.0602,0.0743,0.0743,0.0743,0.0744,0.0744,0,-0.111,-0.1124,-0.1151,-0.1196,-0.1222,-0.1205,-0.1178,-0.1154,-0.108,-0.0899,-0.0717,-0.0358,-0.0019,0.0245,0.0564,0.0762,0.0733,0.077,0.0702,0.0695,0.0689,0.0661,0.0754,0.0755,0.0756,0.0756,0,0,-0.1159,-0.1206,-0.1212,-0.1275,-0.1296,-0.1319,-0.1305,-0.122,-0.11,-0.0904,-0.07,-0.04,-0.0046,0.0197,0.0441,0.0599,0.0577,0.0596,0.0563,0.0442,0.0434,0.0619,0.0566,0,0,0,0,0]}],[{"header":{"parameterUnit":"m.s-1","parameterCategory":2,"la1":30.2991,"la2":30.254,"lo1":-89.0895,"lo2":-89.0444,"dy":0.0017,"dx":0.0017,"nx":28,"ny":28,"refTime":"2023-10-17T21:00:00:Z","depth":"4","parameterNumber":2,"parameterNumberName":"U-component_of_CURRENTS"},"data":[0,0,0,0,0,0,0,0,0,0,0,0,0,0,0,0,0,0,0,0,0,0,0,0,0,0,0,0,0,0,0,0,0,0,0,0,0,0,0,0,0,0,0,0,0,0,0,0,0,0,0,0,0,0,0,0,0,0,-0.1542,-0.1543,0,-0.1635,-0.1636,-0.1637,-0.1672,-0.1672,-0.1672,-0.1672,-0.1766,-0.1768,-0.1771,0,0,0,0,0,0,0,0,0,0,0,0,0,-0.1425,-0.1427,-0.1541,-0.1543,-0.1545,-0.1635,-0.1636,-0.1637,-0.1672,-0.1672,-0.1672,-0.1672,-0.1765,-0.1768,-0.1771,0,0,0,0,0,0,0,0,0,0,0,0,0,-0.149,-0.1427,-0.1541,-0.1576,-0.158,-0.1635,-0.1636,-0.1637,-0.1672,-0.1672,-0.1672,-0.1673,-0.1764,-0.1768,-0.1771,-0.1793,0,0,-0.1783,-0.1784,0,0,0,0,0,0,0,0,-0.1486,-0.1493,-0.1569,-0.1573,-0.1578,-0.1645,-0.163,-0.1691,-0.1672,-0.1633,-0.1672,-0.1673,-0.1728,-0.1735,-0.1747,-0.1797,-0.1801,-0.1783,-0.1785,-0.1787,-0.1788,0,0,0,0,0,0,0,-0.1481,-0.149,-0.1575,-0.1571,-0.1577,-0.1598,-0.1606,-0.1641,-0.1676,-0.1637,-0.164,-0.1657,-0.173,-0.1743,-0.1749,-0.1802,-0.1783,-0.1786,-0.1788,-0.179,-0.1939,-0.1941,0,0,0,0,0,0,-0.1476,-0.1485,-0.1572,-0.1578,-0.1536,-0.16,-0.1609,-0.1621,-0.1676,-0.1686,-0.1657,-0.1658,-0.1737,-0.1745,-0.1753,-0.1846,-0.1787,-0.179,-0.1792,-0.1938,-0.194,-0.1942,0,0,0,0,0,0,-0.1473,-0.1482,-0.1568,-0.1537,-0.155,-0.1602,-0.1615,-0.1623,-0.1663,-0.1692,-0.1701,-0.1691,-0.1737,-0.1748,-0.1804,-0.1848,-0.1792,-0.1795,-0.1935,-0.1938,-0.1941,-0.1991,0,0,0,0,0,0,-0.1469,-0.148,-0.1502,-0.1536,-0.1552,-0.1622,-0.1615,-0.1625,-0.1673,-0.1676,-0.1724,-0.1731,-0.1738,-0.1799,-0.1808,-0.1852,-0.1798,-0.1933,-0.1937,-0.194,-0.1987,-0.1995,-0.2002,0,0,0,0,0,-0.1464,-0.1496,-0.1502,-0.1514,-0.1574,-0.1624,-0.1634,-0.1668,-0.1674,-0.1702,-0.1729,-0.1731,-0.1826,-0.1803,-0.1813,-0.1859,-0.1932,-0.1936,-0.194,-0.1984,-0.1994,-0.2002,0,0,0,0,0,0,-0.1455,-0.1503,-0.1511,-0.1555,-0.1594,-0.1631,-0.1671,-0.1685,-0.1729,-0.174,-0.1754,-0.1764,-0.1825,-0.1838,-0.1812,-0.1912,-0.188,-0.1886,-0.1911,-0.192,-0.1927,-0.1913,-0.1801,0,0,0,0,0,-0.1462,-0.15,-0.154,-0.1576,-0.1602,-0.1639,-0.1669,-0.169,-0.1727,-0.1748,-0.178,-0.1816,-0.1846,-0.1879,-0.1906,-0.1969,-0.1951,-0.2005,-0.2012,-0.2019,-0.2015,-0.2023,-0.203,-0.1955,-0.1955,-0.1955,0,0,-0.1468,-0.1501,-0.1523,-0.1578,-0.1614,-0.1656,-0.1658,-0.1715,-0.1749,-0.1752,-0.1821,-0.1842,-0.1865,-0.1926,-0.1957,-0.1948,-0.2032,-0.2024,-0.2029,-0.2021,-0.2028,-0.2035,-0.2041,-0.1957,-0.1957,-0.1956,0,0,-0.1494,-0.1531,-0.1569,-0.1605,-0.1667,-0.1693,-0.1714,-0.1769,-0.1798,-0.1857,-0.1863,-0.1906,-0.1971,-0.1991,-0.2007,-0.2074,-0.2061,-0.21,-0.214,-0.2149,-0.2155,-0.216,-0.2143,-0.2146,-0.2115,-0.2115,-0.2115,0,-0.1498,-0.1547,-0.1588,-0.1631,-0.1668,-0.1711,-0.1753,-0.1791,-0.1855,-0.1874,-0.1888,-0.1961,-0.1995,-0.204,-0.2077,-0.209,-0.2087,-0.2103,-0.2157,-0.2161,-0.2165,-0.2147,-0.215,-0.2118,-0.2117,-0.2117,-0.2117,0,-0.1541,-0.159,-0.1621,-0.1684,-0.1727,-0.1778,-0.1828,-0.1877,-0.1916,-0.1937,-0.1995,-0.2032,-0.2069,-0.2102,-0.212,-0.2175,-0.2159,-0.2154,-0.2128,-0.2175,-0.2154,-0.2156,-0.2122,-0.2121,-0.212,-0.2119,0,0,-0.1521,-0.1629,-0.164,-0.1669,-0.1761,-0.1788,-0.1863,-0.1919,-0.1948,-0.2009,-0.2045,-0.2113,-0.2123,-0.2142,-0.2169,-0.2203,-0.2243,-0.2211,-0.221,-0.2184,-0.2253,-0.2091,-0.2077,-0.2255,-0.2256,-0.2257,-0.2225,0,-0.1541,-0.1618,-0.1674,-0.1741,-0.1782,-0.1844,-0.1897,-0.1949,-0.2001,-0.2049,-0.2083,-0.2128,-0.214,-0.2174,-0.2205,-0.2244,-0.2252,-0.2251,-0.222,-0.2219,-0.206,-0.2074,-0.2259,-0.2226,-0.2226,-0.2226,-0.2226,0,-0.1558,-0.1608,-0.1682,-0.1755,-0.1779,-0.1827,-0.1903,-0.1951,-0.2024,-0.2064,-0.2106,-0.2136,-0.2202,-0.2204,-0.2249,-0.2255,-0.2255,-0.2268,-0.2267,-0.2095,-0.2059,-0.2171,-0.2229,-0.2228,-0.2228,-0.2228,-0.2228,0,-0.1503,-0.1603,-0.1659,-0.169,-0.1788,-0.1829,-0.1876,-0.1953,-0.1994,-0.2075,-0.212,-0.2165,-0.2213,-0.2226,-0.2257,-0.227,-0.2284,-0.2293,-0.2125,-0.2114,-0.2247,-0.2243,-0.2289,-0.2289,-0.2289,-0.2289,-0.2289,0,-0.1486,-0.1527,-0.164,-0.1665,-0.1713,-0.179,-0.1843,-0.19,-0.199,-0.2029,-0.2115,-0.2149,-0.223,-0.2249,-0.2255,-0.218,-0.2266,-0.2117,-0.2092,-0.227,-0.2268,-0.2248,-0.2243,-0.2288,-0.2288,-0.2288,-0.2289,0,-0.1412,-0.1497,-0.1555,-0.1662,-0.1693,-0.1719,-0.1821,-0.1858,-0.1956,-0.2021,-0.2056,-0.2159,-0.2175,-0.2203,-0.2228,-0.2158,-0.2117,-0.2058,-0.2228,-0.2215,-0.1943,-0.1943,-0.1873,-0.1867,-0.1862,-0.1857,-0.1854,0,-0.1376,-0.1408,-0.1526,-0.1558,-0.1613,-0.1671,-0.1717,-0.1825,-0.1872,-0.2,-0.2024,-0.2086,-0.2128,-0.2013,-0.206,-0.2,-0.1977,-0.1934,-0.1954,-0.1917,-0.19,-0.1907,-0.1913,-0.1846,-0.1844,-0.1843,-0.1842,0,-0.1295,-0.1359,-0.1403,-0.147,-0.1531,-0.1583,-0.1659,-0.1687,-0.181,-0.1923,-0.1934,-0.1925,-0.1924,-0.1911,-0.1859,-0.1826,-0.196,-0.1881,-0.1892,-0.191,-0.1883,-0.1873,-0.1885,-0.1824,-0.1826,-0.1828,-0.1829,0,-0.1226,-0.1236,-0.1306,-0.1346,-0.1427,-0.1469,-0.1528,-0.1581,-0.1633,-0.1792,-0.1781,-0.1837,-0.1912,-0.1817,-0.1779,-0.1719,-0.1703,-0.1655,-0.1678,-0.1698,-0.1652,-0.1593,-0.1408,0,0,0,0,0,-0.1142,-0.1134,-0.1171,-0.1208,-0.1294,-0.1332,-0.1474,-0.1548,-0.1683,-0.1648,-0.1708,-0.1694,-0.164,-0.1662,-0.1561,-0.169,-0.1706,-0.1565,-0.1664,-0.1725,-0.1746,-0.1706,0,0,0,0,0,0,-0.1081,-0.1106,-0.1116,-0.1086,-0.1089,-0.116,-0.1254,-0.136,-0.1351,-0.1492,-0.147,-0.1557,-0.1526,-0.1643,-0.1505,-0.151,-0.1533,-0.1595,-0.159,-0.1714,-0.1732,-0.1749,-0.1715,0,0,0,0,0]},{"header":{"parameterUnit":"m.s-1","parameterCategory":2,"la1":30.2991,"la2":30.254,"lo1":-89.0895,"lo2":-89.0444,"dy":0.0017,"dx":0.0017,"nx":28,"ny":28,"refTime":"2023-10-17T21:00:00:Z","depth":"4","parameterNumber":3,"parameterNumberName":"V-component_of_CURRENTS"},"data":[0,0,0,0,0,0,0,0,0,0,0,0,0,0,0,0,0,0,0,0,0,0,0,0,0,0,0,0,0,0,0,0,0,0,0,0,0,0,0,0,0,0,0,0,0,0,0,0,0,0,0,0,0,0,0,0,0,0,-0.0485,-0.0484,0,-0.0465,-0.0465,-0.0465,-0.0455,-0.0455,-0.0455,-0.0455,-0.0399,-0.0398,-0.0396,0,0,0,0,0,0,0,0,0,0,0,0,0,-0.0488,-0.0488,-0.0485,-0.0484,-0.0484,-0.0465,-0.0465,-0.0465,-0.0455,-0.0455,-0.0455,-0.0454,-0.0399,-0.0398,-0.0396,0,0,0,0,0,0,0,0,0,0,0,0,0,-0.0482,-0.0488,-0.0485,-0.0475,-0.0473,-0.0465,-0.0465,-0.0465,-0.0455,-0.0455,-0.0455,-0.0454,-0.04,-0.0398,-0.0396,-0.0392,0,0,-0.039,-0.039,0,0,0,0,0,0,0,0,-0.0482,-0.0482,-0.0477,-0.0475,-0.0474,-0.046,-0.0446,-0.0438,-0.0456,-0.0465,-0.0455,-0.0454,-0.0414,-0.0411,-0.0413,-0.039,-0.0387,-0.039,-0.0389,-0.0388,-0.0388,0,0,0,0,0,0,0,-0.0483,-0.0483,-0.048,-0.0476,-0.0474,-0.0462,-0.0461,-0.0444,-0.0444,-0.0464,-0.0463,-0.0456,-0.0414,-0.0415,-0.0411,-0.0386,-0.039,-0.0389,-0.0388,-0.0387,-0.0385,-0.0386,0,0,0,0,0,0,-0.0482,-0.0483,-0.048,-0.0479,-0.0474,-0.0462,-0.0461,-0.0467,-0.0445,-0.044,-0.0457,-0.0456,-0.0418,-0.0414,-0.0409,-0.0422,-0.0388,-0.0387,-0.0386,-0.0384,-0.0385,-0.0386,0,0,0,0,0,0,-0.0482,-0.0482,-0.0481,-0.0478,-0.0476,-0.0462,-0.0469,-0.0467,-0.0472,-0.0439,-0.0434,-0.0464,-0.0418,-0.0412,-0.0416,-0.0419,-0.0386,-0.0384,-0.0383,-0.0384,-0.0386,-0.0435,0,0,0,0,0,0,-0.0482,-0.0483,-0.0494,-0.0478,-0.0476,-0.0485,-0.0469,-0.0467,-0.0467,-0.0466,-0.0444,-0.0438,-0.0417,-0.042,-0.0415,-0.0416,-0.0383,-0.0381,-0.0383,-0.0385,-0.0432,-0.0438,-0.0444,0,0,0,0,0,-0.0483,-0.0493,-0.0496,-0.0495,-0.0491,-0.0485,-0.0484,-0.0474,-0.0468,-0.0477,-0.0471,-0.0439,-0.0428,-0.042,-0.0413,-0.0414,-0.038,-0.0383,-0.0385,-0.043,-0.0437,-0.0443,0,0,0,0,0,0,-0.0499,-0.0492,-0.0495,-0.0503,-0.05,-0.0483,-0.0485,-0.0481,-0.0484,-0.0483,-0.0456,-0.0451,-0.0458,-0.0434,-0.0425,-0.0421,-0.0397,-0.0398,-0.0433,-0.044,-0.0445,-0.0431,-0.0381,0,0,0,0,0,-0.0509,-0.0517,-0.0508,-0.0517,-0.0515,-0.0505,-0.0503,-0.0498,-0.0492,-0.0493,-0.048,-0.0467,-0.0462,-0.0451,-0.0445,-0.044,-0.0375,-0.0436,-0.0442,-0.0447,-0.0432,-0.0354,-0.035,-0.0394,-0.0394,-0.0394,0,0,-0.0517,-0.0514,-0.0519,-0.0521,-0.0516,-0.0522,-0.0504,-0.0503,-0.0516,-0.0485,-0.0503,-0.0492,-0.047,-0.0473,-0.0471,-0.0451,-0.04,-0.045,-0.0454,-0.0436,-0.0356,-0.0351,-0.0347,-0.0396,-0.0395,-0.0395,0,0,-0.0531,-0.0535,-0.0546,-0.0549,-0.0545,-0.0537,-0.0541,-0.0534,-0.0541,-0.0557,-0.054,-0.0531,-0.0526,-0.0504,-0.0494,-0.0524,-0.0442,-0.0526,-0.0528,-0.0453,-0.0448,-0.0442,-0.0346,-0.0331,-0.0517,-0.0517,-0.0517,0,-0.0545,-0.0558,-0.0549,-0.0561,-0.0564,-0.0547,-0.0562,-0.0567,-0.0568,-0.0572,-0.0571,-0.0551,-0.0537,-0.0518,-0.0534,-0.0532,-0.0468,-0.0503,-0.0457,-0.045,-0.0444,-0.0346,-0.0329,-0.052,-0.052,-0.0519,-0.0519,0,-0.0566,-0.0582,-0.0585,-0.0597,-0.0602,-0.0609,-0.061,-0.0618,-0.062,-0.0621,-0.0618,-0.0595,-0.0572,-0.0572,-0.0564,-0.0517,-0.0479,-0.048,-0.0433,-0.0442,-0.0339,-0.0321,-0.0524,-0.0523,-0.0522,-0.0521,0,0,-0.0583,-0.06,-0.0603,-0.062,-0.0623,-0.0629,-0.0645,-0.0653,-0.0659,-0.0656,-0.0644,-0.0641,-0.0613,-0.0597,-0.0571,-0.0507,-0.0414,-0.0475,-0.047,-0.0367,-0.022,-0.0245,-0.0226,-0.0402,-0.0399,-0.0397,-0.0162,0,-0.0606,-0.0638,-0.0638,-0.067,-0.0685,-0.0678,-0.0695,-0.0701,-0.0699,-0.0685,-0.0645,-0.0631,-0.0627,-0.0604,-0.0544,-0.0451,-0.0369,-0.0475,-0.0237,-0.023,-0.024,-0.0208,-0.0389,-0.0148,-0.0144,-0.0141,-0.0139,0,-0.0629,-0.0648,-0.0687,-0.0711,-0.0716,-0.0735,-0.0744,-0.0758,-0.0733,-0.0724,-0.0684,-0.0648,-0.0564,-0.0555,-0.0371,-0.0436,-0.033,-0.0249,-0.0238,-0.0228,-0.0221,-0.0141,-0.0104,-0.0107,-0.011,-0.0112,-0.0114,0,-0.0649,-0.0681,-0.0716,-0.0727,-0.075,-0.0768,-0.0777,-0.0776,-0.0781,-0.0733,-0.0703,-0.0618,-0.0543,-0.0417,-0.0281,-0.0307,-0.0058,-0.007,0.002,0.0021,-0.0003,-0.0011,0.0083,0.0083,0.0082,0.0082,0.0081,0,-0.0669,-0.0699,-0.0733,-0.0754,-0.0795,-0.08,-0.0828,-0.0824,-0.0795,-0.0776,-0.072,-0.0653,-0.0503,-0.0362,-0.0245,-0.0056,-0.0023,0.0044,0.0081,-0.003,-0.0045,0.0012,0.0001,0.009,0.0088,0.0087,0.0085,0,-0.0686,-0.0709,-0.0753,-0.0791,-0.0809,-0.084,-0.0863,-0.087,-0.0838,-0.0792,-0.0766,-0.064,-0.0457,-0.0307,-0.0071,0.0001,0.0172,0.0232,0.0128,0.0152,0.0205,0.0188,0.0383,0.0384,0.0385,0.0385,0.0386,0,-0.0698,-0.0724,-0.0784,-0.0818,-0.0841,-0.0883,-0.0906,-0.0896,-0.0883,-0.0781,-0.0739,-0.0566,-0.047,-0.0134,-0.0002,0.0243,0.0251,0.0353,0.0253,0.0219,0.0237,0.0218,0.0201,0.0388,0.0388,0.0388,0.0388,0,-0.0719,-0.0744,-0.0779,-0.0848,-0.0891,-0.0924,-0.0943,-0.0924,-0.088,-0.0845,-0.0678,-0.0524,-0.031,-0.0108,0.0077,0.0236,0.0285,0.0363,0.0361,0.0269,0.0228,0.024,0.0221,0.0392,0.0391,0.0391,0.0391,0,-0.0741,-0.0769,-0.0821,-0.0875,-0.0931,-0.0949,-0.0952,-0.0898,-0.0869,-0.074,-0.0677,-0.0471,-0.0341,-0.0107,0.0058,0.0209,0.0236,0.0269,0.0273,0.0271,0.0129,0.0053,0.022,0,0,0,0,0,-0.0764,-0.08,-0.0847,-0.0908,-0.0953,-0.0985,-0.0971,-0.0953,-0.0889,-0.0767,-0.0718,-0.0523,-0.0255,-0.0139,0.0016,0.0043,0.0233,0.0224,0.0265,0.041,0.0406,0.025,0,0,0,0,0,0,-0.0788,-0.0839,-0.085,-0.0917,-0.0962,-0.1007,-0.0998,-0.095,-0.0863,-0.0774,-0.0622,-0.0521,-0.0261,-0.0354,0.0002,0.0048,0.009,0.0354,0.0357,0.0412,0.0408,0.0405,0.0244,0,0,0,0,0]}]]